Simultaneous Nadir Overpasses (SNOs) Predictions

Prediction of SNOs between AQUA and METOP-A Satellite Orbit:

Table of predicted SNOs for the next 14.0 days since TLE Epoch: 8/30/2019
Index Date (AQUA) Time (AQUA) Lat,Lon (AQUA) SZA (AQUA ) Date (METOP-A) Time (METOP-A) Lat,Lon (METOP-A) SZA (METOP-A ) Distance(km) Time Diff (sec)
1 08/31/2019 10:09:47 -75.37,-161.92 113.16 08/31/2019 10:08:44 -75.38,-161.93 113.14 0.70 63
2 08/31/2019 10:59:16 75.42, 5.57 66.91 08/31/2019 10:59:23 75.41, 5.51 66.91 2.07 7
3 08/31/2019 11:48:48 -75.77, 172.23 112.70 08/31/2019 11:49:57 -75.79, 173.98 112.76 47.89 69
4 09/03/2019 05:44:02 -75.37, -95.48 112.15 09/03/2019 05:43:09 -75.37, -95.61 112.14 3.72 53
5 09/03/2019 06:33:31 75.43, 72.00 67.93 09/03/2019 06:33:47 75.44, 71.96 67.95 2.42 16
6 09/06/2019 01:18:18 -75.42, -29.19 111.07 09/06/2019 01:17:33 -75.40, -29.16 111.08 2.75 45
7 09/06/2019 02:07:47 75.48, 138.28 69.02 09/06/2019 02:08:11 75.47, 138.40 69.00 3.45 24
8 09/08/2019 20:52:32 -75.43, 37.23 110.02 09/08/2019 20:51:56 -75.43, 37.29 110.01 1.52 36
9 09/08/2019 21:42:00 75.44,-155.17 70.02 09/08/2019 21:42:35 75.45,-155.30 70.03 3.87 35
10 09/11/2019 16:26:47 -75.44, 103.64 108.95 09/11/2019 16:26:20 -75.46, 103.73 108.93 3.17 27
11 09/11/2019 17:16:16 75.51, -88.92 71.14 09/11/2019 17:16:59 75.48, -88.87 71.11 3.40 43




NCC Satellite Simultaneous Nadir Overpasses (SNOs) Prediction Service
